Time,TemperatureF,DewpointF,PressureIn,WindDirection,WindDirectionDegrees,WindSpeedMPH,WindSpeedGustMPH,Humidity,HourlyPrecipIn,Conditions,Clouds,dailyrainin,SolarRadiationWatts/m^2,SoftwareType,DateUTC
2013-09-14 00:04:00,61.0,49.0,-100.00,ENE,59,0.0,0.0,65,0.00,,,0.00,0.000000,,2013-09-14 04:04:00,
2013-09-14 00:43:00,59.0,49.0,-100.00,ENE,73,0.0,0.0,70,0.00,,,0.00,0.000000,,2013-09-14 04:43:00,
2013-09-14 00:54:00,59.0,49.0,-100.00,ENE,73,0.0,0.0,70,0.00,,,0.00,0.000000,,2013-09-14 04:54:00,
2013-09-14 01:03:00,59.0,49.0,-100.00,ENE,73,0.0,0.0,70,0.00,,,0.00,0.000000,,2013-09-14 05:03:00,
2013-09-14 01:43:00,59.0,50.0,-100.00,ENE,67,0.0,0.0,71,0.00,,,0.00,0.000000,,2013-09-14 05:43:00,
2013-09-14 01:53:00,59.0,50.0,-100.00,ENE,67,0.0,0.0,71,0.00,,,0.00,0.000000,,2013-09-14 05:53:00,
2013-09-14 02:02:00,59.0,50.0,-100.00,ENE,67,0.0,0.0,71,0.00,,,0.00,0.000000,,2013-09-14 06:02:00,
2013-09-14 02:42:00,56.0,51.0,-100.00,NE,47,0.0,0.0,82,0.00,,,0.00,0.000000,,2013-09-14 06:42:00,
2013-09-14 02:52:00,56.0,51.0,-100.00,NE,47,0.0,0.0,82,0.00,,,0.00,0.000000,,2013-09-14 06:52:00,
2013-09-14 03:02:00,56.0,51.0,-100.00,NE,47,0.0,0.0,82,0.00,,,0.00,0.000000,,2013-09-14 07:02:00,
2013-09-14 03:42:00,55.0,50.0,-100.00,SE,129,0.0,0.0,84,0.00,,,0.00,0.000000,,2013-09-14 07:42:00,
2013-09-14 03:52:00,55.0,50.0,-100.00,SE,129,0.0,0.0,84,0.00,,,0.00,0.000000,,2013-09-14 07:52:00,
2013-09-14 04:02:00,55.0,50.0,-100.00,SE,129,0.0,0.0,84,0.00,,,0.00,0.000000,,2013-09-14 08:02:00,
2013-09-14 04:42:00,56.0,49.0,-100.00,ENE,67,0.0,0.0,78,0.00,,,0.00,0.000000,,2013-09-14 08:42:00,
2013-09-14 04:52:00,56.0,49.0,-100.00,ENE,67,0.0,0.0,78,0.00,,,0.00,0.000000,,2013-09-14 08:52:00,
2013-09-14 05:02:00,56.0,49.0,-100.00,ENE,67,0.0,0.0,78,0.00,,,0.00,0.000000,,2013-09-14 09:02:00,
2013-09-14 05:43:00,56.0,48.0,-100.00,ENE,59,0.0,0.0,74,0.00,,,0.00,0.000000,,2013-09-14 09:43:00,
2013-09-14 05:54:00,56.0,48.0,-100.00,ENE,59,0.0,0.0,74,0.00,,,0.00,0.000000,,2013-09-14 09:54:00,
2013-09-14 06:03:00,56.0,48.0,-100.00,ENE,59,0.0,0.0,74,0.00,,,0.00,0.000000,,2013-09-14 10:03:00,
2013-09-14 06:43:00,53.0,47.0,-100.00,East,92,0.0,0.0,81,0.00,,,0.00,0.000000,,2013-09-14 10:43:00,
2013-09-14 06:53:00,53.0,47.0,-100.00,East,92,0.0,0.0,81,0.00,,,0.00,0.000000,,2013-09-14 10:53:00,
2013-09-14 07:02:00,53.0,47.0,-100.00,East,92,0.0,0.0,81,0.00,,,0.00,0.000000,,2013-09-14 11:02:00,
2013-09-14 07:42:00,53.0,48.0,-100.00,SE,130,0.0,0.0,82,0.00,,,0.00,0.000000,,2013-09-14 11:42:00,
2013-09-14 07:52:00,53.0,48.0,-100.00,SE,130,0.0,0.0,82,0.00,,,0.00,0.000000,,2013-09-14 11:52:00,
2013-09-14 08:02:00,53.0,48.0,-100.00,SE,130,0.0,0.0,82,0.00,,,0.00,0.000000,,2013-09-14 12:02:00,
2013-09-14 08:42:00,53.0,49.0,-100.00,SE,142,0.0,0.0,85,0.00,,,0.00,18.000000,,2013-09-14 12:42:00,
2013-09-14 08:52:00,53.0,49.0,-100.00,SE,142,0.0,0.0,85,0.00,,,0.00,18.000000,,2013-09-14 12:52:00,
2013-09-14 09:01:00,53.0,49.0,-100.00,SE,142,0.0,0.0,85,0.00,,,0.00,18.000000,,2013-09-14 13:01:00,
2013-09-14 09:42:00,58.0,49.0,-100.00,ENE,59,0.0,0.0,72,0.00,,,0.00,149.000000,,2013-09-14 13:42:00,
2013-09-14 09:52:00,58.0,49.0,-100.00,ENE,59,0.0,0.0,72,0.00,,,0.00,149.000000,,2013-09-14 13:52:00,
2013-09-14 10:02:00,58.0,49.0,-100.00,ENE,59,0.0,0.0,72,0.00,,,0.00,149.000000,,2013-09-14 14:02:00,
2013-09-14 10:43:00,61.0,50.0,-100.00,ENE,58,5.0,11.0,66,0.00,,,0.00,401.000000,,2013-09-14 14:43:00,
2013-09-14 10:52:00,61.0,50.0,-100.00,ENE,58,5.0,11.0,66,0.00,,,0.00,401.000000,,2013-09-14 14:52:00,
2013-09-14 11:02:00,61.0,50.0,-100.00,ENE,58,5.0,11.0,66,0.00,,,0.00,401.000000,,2013-09-14 15:02:00,
2013-09-14 11:44:00,64.0,48.0,-100.00,ENE,64,6.0,12.0,57,0.00,,,0.00,566.000000,,2013-09-14 15:44:00,
2013-09-14 11:53:00,64.0,48.0,-100.00,ENE,64,6.0,12.0,57,0.00,,,0.00,566.000000,,2013-09-14 15:53:00,
2013-09-14 12:03:00,64.0,48.0,-100.00,ENE,64,6.0,12.0,57,0.00,,,0.00,566.000000,,2013-09-14 16:03:00,
2013-09-14 12:44:00,67.0,48.0,-100.00,East,91,3.0,15.0,51,0.00,,,0.00,691.000000,,2013-09-14 16:44:00,
2013-09-14 12:54:00,67.0,48.0,-100.00,East,91,3.0,15.0,51,0.00,,,0.00,691.000000,,2013-09-14 16:54:00,
2013-09-14 13:03:00,67.0,48.0,-100.00,East,91,3.0,15.0,51,0.00,,,0.00,691.000000,,2013-09-14 17:03:00,
2013-09-14 13:43:00,69.0,49.0,-100.00,ENE,57,4.0,10.0,49,0.00,,,0.00,764.000000,,2013-09-14 17:43:00,
2013-09-14 13:54:00,69.0,49.0,-100.00,ENE,57,4.0,10.0,49,0.00,,,0.00,764.000000,,2013-09-14 17:54:00,
2013-09-14 14:02:00,69.0,49.0,-100.00,ENE,57,4.0,10.0,49,0.00,,,0.00,764.000000,,2013-09-14 18:02:00,
2013-09-14 14:43:00,71.0,48.0,-100.00,ENE,63,4.0,10.0,44,0.00,,,0.00,777.000000,,2013-09-14 18:43:00,
2013-09-14 14:52:00,71.0,48.0,-100.00,ENE,63,4.0,10.0,44,0.00,,,0.00,777.000000,,2013-09-14 18:52:00,
2013-09-14 15:02:00,71.0,48.0,-100.00,ENE,63,4.0,10.0,44,0.00,,,0.00,777.000000,,2013-09-14 19:02:00,
2013-09-14 15:42:00,73.0,47.0,-100.00,ENE,64,4.0,11.0,40,0.00,,,0.00,737.000000,,2013-09-14 19:42:00,
2013-09-14 15:52:00,73.0,47.0,-100.00,ENE,64,4.0,11.0,40,0.00,,,0.00,737.000000,,2013-09-14 19:52:00,
2013-09-14 16:02:00,73.0,47.0,-100.00,ENE,64,4.0,11.0,40,0.00,,,0.00,737.000000,,2013-09-14 20:02:00,
2013-09-14 16:42:00,75.0,47.0,-100.00,NE,49,1.0,8.0,37,0.00,,,0.00,644.000000,,2013-09-14 20:42:00,
2013-09-14 16:52:00,75.0,47.0,-100.00,NE,49,1.0,8.0,37,0.00,,,0.00,644.000000,,2013-09-14 20:52:00,
2013-09-14 17:02:00,75.0,47.0,-100.00,NE,49,1.0,8.0,37,0.00,,,0.00,644.000000,,2013-09-14 21:02:00,
2013-09-14 17:44:00,76.0,47.0,-100.00,NNW,341,0.0,6.0,36,0.00,,,0.00,503.000000,,2013-09-14 21:44:00,
2013-09-14 17:54:00,76.0,47.0,-100.00,NNW,341,0.0,6.0,36,0.00,,,0.00,503.000000,,2013-09-14 21:54:00,
2013-09-14 18:04:00,76.0,47.0,-100.00,NNW,341,0.0,6.0,36,0.00,,,0.00,503.000000,,2013-09-14 22:04:00,
2013-09-14 18:42:00,75.0,50.0,-100.00,NE,41,0.0,2.0,41,0.00,,,0.00,330.000000,,2013-09-14 22:42:00,
2013-09-14 18:53:00,75.0,50.0,-100.00,NE,41,0.0,2.0,41,0.00,,,0.00,330.000000,,2013-09-14 22:53:00,
2013-09-14 19:03:00,75.0,50.0,-100.00,NE,41,0.0,2.0,41,0.00,,,0.00,330.000000,,2013-09-14 23:03:00,
2013-09-14 19:42:00,69.0,51.0,-100.00,WNW,291,0.0,0.0,52,0.00,,,0.00,94.000000,,2013-09-14 23:42:00,
2013-09-14 19:53:00,69.0,51.0,-100.00,WNW,291,0.0,0.0,52,0.00,,,0.00,94.000000,,2013-09-14 23:53:00,
2013-09-14 20:02:00,69.0,51.0,-100.00,WNW,291,0.0,0.0,52,0.00,,,0.00,94.000000,,2013-09-15 00:02:00,
2013-09-14 20:43:00,65.0,53.0,-100.00,WSW,256,0.0,0.0,64,0.00,,,0.00,7.000000,,2013-09-15 00:43:00,
2013-09-14 20:53:00,65.0,53.0,-100.00,WSW,256,0.0,0.0,64,0.00,,,0.00,7.000000,,2013-09-15 00:53:00,
2013-09-14 21:01:00,65.0,53.0,-100.00,WSW,256,0.0,0.0,64,0.00,,,0.00,7.000000,,2013-09-15 01:01:00,
2013-09-14 21:42:00,61.0,55.0,-100.00,SW,217,0.0,0.0,81,0.00,,,0.00,0.000000,,2013-09-15 01:42:00,
2013-09-14 21:52:00,61.0,55.0,-100.00,SW,217,0.0,0.0,81,0.00,,,0.00,0.000000,,2013-09-15 01:52:00,
2013-09-14 22:02:00,61.0,55.0,-100.00,SW,217,0.0,0.0,81,0.00,,,0.00,0.000000,,2013-09-15 02:02:00,
2013-09-14 22:42:00,59.0,55.0,-100.00,SW,220,0.0,0.0,87,0.00,,,0.00,0.000000,,2013-09-15 02:42:00,
2013-09-14 22:52:00,59.0,55.0,-100.00,SW,220,0.0,0.0,87,0.00,,,0.00,0.000000,,2013-09-15 02:52:00,
2013-09-14 23:02:00,59.0,55.0,-100.00,SW,220,0.0,0.0,87,0.00,,,0.00,0.000000,,2013-09-15 03:02:00,
2013-09-14 23:44:00,57.0,54.0,-100.00,SSW,197,0.0,0.0,90,0.00,,,0.00,0.000000,,2013-09-15 03:44:00,
2013-09-14 23:55:00,57.0,54.0,-100.00,SSW,197,0.0,0.0,90,0.00,,,0.00,0.000000,,2013-09-15 03:55:00,